Tracking 17142 objects as of 27-May-2015
HD Live streaming from Space Station

ATLAS 55E R/B

Track ATLAS 55E R/B now!
10-day predictions
ATLAS 55E R/B is classified as:


NORAD ID: 16137
Int'l Code: 1985-093B
Perigee: 896.3 km
Apogee: 20,399.1 km
Inclination: 63.6 °
Period: 368.3 minutes
Semi major axis: 17018 km
RCS: 2.2883 m2 (large)
Launch date: October 9, 1985
Source: United States (US)

Note: This is a ROCKET BODY
Your satellite tracking list
Your tracking list is empty





NASA's NSSDC Master Catalog

Two Line Element Set (TLE):
1 16137U 85093B   15145.28047208 -.00000082  00000-0  00000+0 0  9990
2 16137 063.5963 226.7478 5729826 001.2305 003.9228 03.91032698423114

Source of the keplerian elements: AFSPC

N2YO: 317